Location: La Sioule Rivi�re
(46.3664°N, 3.3197°E)
Time: 13:04:20
(UTC+00:00)

Cosmos 968 Rocket - Pass Details

Date: 29 October 2020
Orbit: 741 x 770 km, 74.0° (Epoch: 23 November)

Event Time Altitude Azimuth Distance (km) Brightness Sun altitude
Rises 18:17:00 0° 334° (NNW) 3,238 7.1 -17.9°
Reaches altitude 10° 18:19:25 10° 331° (NNW) 2,303 6.3 -18.3°
Maximum altitude 18:24:31 57° 254° (WSW) 890 4.1 -19.2°
Drops below altitude 10° 18:29:33 10° 176° (S) 2,267 5.9 -20.1°
Sets 18:31:55 0° 173° (S) 3,183 6.6 -20.5°
